Location: Unspecified
(38.9820°N, 94.4650°W)
Time: 03:01:04
(UTC-05:00)

HST - Visible Passes

Search period start: 22 October 2014 00:00
Search period end: 01 November 2014 00:00
Orbit: 546 x 550 km, 28.5° (Epoch: 20 October)

Date Brightness Start Highest point End Pass type
(mag) Time Alt. Az. Time Alt. Az. Time Alt. Az.
25 Oct 3.1 19:48:38 10° S 19:49:57 11° SSE 19:50:43 11° SSE visible
26 Oct 3.0 19:40:29 10° SSW 19:42:31 13° SSE 19:43:53 12° SE visible
27 Oct 3.0 19:32:38 10° SSW 19:35:06 15° SSE 19:37:02 12° SE visible
28 Oct 2.9 19:24:57 10° SSW 19:27:40 17° S 19:30:09 11° SE visible
28 Oct 3.8 21:05:30 10° SW 21:05:41 11° SW 21:05:41 11° SW visible
29 Oct 2.9 19:17:21 10° SW 19:20:15 18° S 19:23:08 10° SE visible
29 Oct 3.6 20:58:11 10° SW 20:58:48 12° SW 20:58:48 12° SW visible
30 Oct 2.8 19:09:50 10° SW 19:12:49 19° S 19:15:48 10° SE visible
30 Oct 3.5 20:50:57 10° SW 20:51:55 13° SW 20:51:55 13° SW visible
31 Oct 2.9 19:02:21 10° SW 19:05:22 19° S 19:08:23 10° SE visible
31 Oct 3.4 20:43:49 10° SW 20:45:03 13° SSW 20:45:03 13° SSW visible
